Overview Statistics Trail Chart Weather Telemetry Raw packets
 

This is the latest recevied weather packets stored in our database for station/object W8RSN-13. If no packets are shown the sender has not sent any weather packets the latest 10 day(s).

<< 1 2 3 4 >>
Time Temp. Humidity Pressure Rain* Wind** Luminosity Snow
1788686360 22.78° C 45% 1015.1 hPa - - - -
1788686059 22.78° C 45% 1015.3 hPa - - - -
1788685758 22.78° C 45% 1015.2 hPa - - - -
1788685457 22.78° C 47% 1015.2 hPa - - - -
1788685156 23.33° C 45% 1015.3 hPa - - - -
1788684875 23.33° C 41% 1015.6 hPa - - - -
1788684574 22.78° C 41% 1015.5 hPa - - - -
1788684273 22.78° C 41% 1015.6 hPa - - - -
1788683972 22.78° C 42% 1015.5 hPa - - - -
1788683672 22.78° C 44% 1015.6 hPa - - - -
1788683370 22.78° C 44% 1015.5 hPa - - - -
1788683070 22.78° C 42% 1015.5 hPa - - - -
1788682769 22.78° C 42% 1015.4 hPa - - - -
1788682468 23.33° C 42% 1015.5 hPa - - - -
1788682167 23.33° C 41% 1015.5 hPa - - - -
1788681866 23.33° C 40% 1015.6 hPa - - - -
1788681566 23.33° C 41% 1015.6 hPa - - - -
1788681264 23.33° C 41% 1015.4 hPa - - - -
1788680963 23.33° C 42% 1015.4 hPa - - - -
1788680663 23.33° C 41% 1015.3 hPa - - - -
1788680362 23.33° C 42% 1015.4 hPa - - - -
1788680061 23.33° C 42% 1015.3 hPa - - - -
1788679760 23.33° C 41% 1015.4 hPa - - - -
1788679459 23.33° C 41% 1015.4 hPa - - - -
1788679158 23.33° C 41% 1015.4 hPa - - - -

* Rain since midnight (hover to see other rain measurements)
** Current wind speed in m/s (hover to see current wind gust speed)